Location: Newark
(45.2862°N, 9.8850°E)
Time: 12:26:48
(UTC+00:00)

N. Korean satellite - Pass Details

Date: 12 December 2019
Orbit: 454 x 508 km, 97.2° (Epoch: 17 January)

Event Time Altitude Azimuth Distance (km) Brightness Sun altitude
Rises 16:19:30 0° 167° (SSE) 2,599 10.4 -7.2°
Reaches altitude 10° 16:21:35 10° 168° (SSE) 1,717 9.5 -7.6°
Maximum altitude 16:25:17 86° 256° (WSW) 512 6.7 -8.2°
Drops below altitude 10° 16:29:00 10° 347° (NNW) 1,715 9.2 -8.7°
Sets 16:31:05 0° 348° (NNW) 2,596 10.1 -9.1°
